Showing default

GARAI-A, 62635

Orbit data source: Space-Track

GARAI-A, 62635 is a payload satellite owned by Satlantis (ES) in SSO that was launched on Tue, 14 Jan 2025 UTC via an FALCON 9 launch vehicle from the Air Force Western Test Range (AFWTR). Payload-class satellites include a variety of spacecraft equipped with specific instruments for various scientific and technological missions. These include communications satellites like Starlink; space stations such as the ISS; scientific satellites like the Hubble; Earth observation satellites from companies like Planet Labs, Umbra, and HawkEye 360; GPS; miniature CubeSats for education and research; and military/defense satellites.

Loading next visibility...
Identifier
62635, 2025-009AC
Orbit
SSO
Country
Flag of ESES / SPN
Related business
Manufacturer
OHB-SE
Mission
Operational Commercial Imaging
Bus & Motor
INNOSAT, Unknown motor
Mass
115 kg wet, 115 kg dry
Launch date (UTC)
2025-01-14 (2 years ago)
Launch vehicle
FALCON 9
Launch site
Air Force Western Test Range (AFWTR)
Object type
Payload
Rocket body
Debris
Shape & HBR
Box, 3.0 m
Radar Cross Section
1.305 m², Large (>1 m²)

Expand to show TLE details & history
Last TLE update: 9 hours ago

TLE from 9 hours ago
0 GARAI-A
1 62635U 25009AC  26238.46837760  .00004947  00000-0  24260-3 0  9991
2 62635  97.3913 316.7072 0003961  89.7318 270.4370 15.18560338 89445
Epoch: 2026-08-26T11:14Z
TLE epoch observation values (Epoch: 2026-08-26T11:14:27.824Z)
Latitude
-0.00006°
Longitude
173.37033°
Altitude
513.26 km
Speed
7.607 km/s
True Right ascension
21h 06m 49s
True Declination
0° 00' 00"
Sunlit
Object was in full shadow at epoch
Visualization orbit readout
Latitude
Unknown
Longitude
Unknown
Altitude
Unknown
Speed
Unknown
Apparent Right ascension
Unknown
Apparent Declination
Unknown
Sunlit
N/A
Visualization observer readout
Local Sidereal Time
11:19:59
Azimuth
Unknown
Elevation
Unknown
Doppler factor
Unknown
Orbital elements
Apogee altitude
509.885 km
Perigee altitude
504.431 km
Semi-major axis
6,885.295 km
Eccentricity
0.0004
Inclination
97.3913°
RAAN
316.7072°
Arg. of periapsis
89.7318°
True anomaly
270.39161°
Mean anomaly
270.437°
Eccentric anomaly
270.41431°
Mean motion
3.79891 °/min
Orbital period
94.76 mins
BSTAR
0.0002426
Loading maneuver chart data...
Computing Atmospheric mass density...
Loading historical data...
Loading historical data...
Loading historical data...
Loading historical data...
Loading historical data...
Loading historical data...
Loading historical data...

Documentation

Showing up to 5 results
|